Location: Newark
(45.5000°N, 11.4167°E)
Time: 22:51:49
(UTC+00:00)

Vanguard 3 - Pass Details

Date: 01 September 2019
Orbit: 508 x 3263 km, 33.4° (Epoch: 14 September)

Event Time Altitude Azimuth Distance (km) Brightness Sun altitude
Rises 10:35:15 0° 202° (SSW) 7,178 12.4 51.8°
Reaches altitude 10° 10:42:11 10° 189° (S) 5,956 12.3 52.2°
Maximum altitude 10:53:26 21° 150° (SSE) 4,457 11.9 52.5°
Drops below altitude 10° 11:02:09 10° 109° (ESE) 4,531 11.3 52.7°
Sets 11:06:20 0° 94° (E) 5,084 11.3 52.7°
